Regional Weather Roundup
Issued by NWS

Home | Current Version | Previous Version | Text Only | Print | Product List | Glossary Off
Versions: 1 2 3 4 5 6 7 8 9 10 11 12 13 14 15 16 17 18 19 20 21 22 23 24 25 26 27 28 29 30 31 32 33 34 35 36 37 38 39 40 41 42 43 44 45 46 47 48 49 50

000
ASUS43 KMPX 031710
RWRMN
WEATHER ROUNDUP FOR MINNESOTA
NATIONAL WEATHER SERVICE TWIN CITIES/CHANHASSEN MN
1200 PM CDT THU SEP 03 2015


NOTE: "FAIR" INDICATES FEW OR NO CLOUDS BELOW 12,000 FEET WITH NO
SIGNIFICANT WEATHER AND/OR OBSTRUCTIONS TO VISIBILITY. N/A MEANS
CURRENT SKY AND/OR WEATHER CONDITIONS ARE NOT AVAILABLE.

MNZ060>063-068>070-031800-
   Twin Cities Metro

CITY           SKY/WX    TMP DP  RH WIND       PRES   REMARKS
TWIN CITIES    PTSUNNY   78  71  79 SE8       29.92S
ST PAUL        CLOUDY    77  72  84 SE9       29.92F
CRYSTAL        MOSUNNY   82  71  69 SE9G18    29.90S
BLAINE         CLOUDY    77  73  88 SE8       29.92F
LAKEVILLE      PTSUNNY   77  73  88 E6        29.92S
EDEN PRAIRIE   CLOUDY    78  72  81 E12       29.91S
SOUTH ST PAUL  MOSUNNY   80  71  74 E6        29.92F
LAKE ELMO      CLOUDY    75  72  88 E7        29.95S
$$
MNZ001>005-007-008-013>017-022>024-027-028-031800-
   Northwest Minnesota

CITY           SKY/WX    TMP DP  RH WIND       PRES   REMARKS
BEMIDJI        SUNNY     77  66  68 SE15G21   29.90S
HALLOCK        SUNNY     84  72  65 S24       29.75F
ROSEAU         SUNNY     79  70  73 SE16      29.84F
WARROAD        MOSUNNY   75  70  83 SE14      29.86F
THIEF RVR FALL SUNNY     82  72  69 SE15G22   29.81F
CROOKSTON      SUNNY     84  72  65 S20G26    29.78F
FOSSTON        SUNNY     82  66  57 S16G23    29.84S
DETROIT LAKES  MOSUNNY   79  70  73 S18G24    29.88S
MOORHEAD       SUNNY     84  72  65 S21G29    29.80F
PARK RAPIDS    MOSUNNY   81  68  64 SE12G23   29.90S
MAHNOMEN       FAIR      81  70  68 SE16G23   29.84S
$$
MNZ006-009>011-018-025>026-031800-
   North Central Minnesota

CITY           SKY/WX    TMP DP  RH WIND       PRES   REMARKS
BAUDETTE       MOSUNNY   74  65  73 SE16      29.89S
FLAG ISLAND    CLOUDY    70  64  83 S16G22    29.87S
INTL FALLS     SUNNY     76  63  64 SE13      29.93F
WASKISH          N/A     79  68  69 SE10G16   29.89F
BIG FORK       SUNNY     75  64  69 S5        29.94F
LONGVILLE      SUNNY     77  66  69 E6        29.93F
GRAND RAPIDS     N/A     73  63  68 S13       29.95F
CRANE LAKE     SUNNY     73  61  64 S3        29.97F
ORR            SUNNY     77  61  57 SE9       29.94F
COOK           SUNNY     75  63  64 SE8       29.97F
WALKER         FAIR      76  67  72 SE9       29.91F
$$
MNZ012-019>021-037-031800-
   Northeast Minnesota

CITY           SKY/WX    TMP DP  RH WIND       PRES   REMARKS
DULUTH         FOG       63  62  97 E13       30.00S VSB 1/4
ELY            SUNNY     75  61  60 SE7G16    29.99F
HIBBING        SUNNY     75  64  68 SE13      29.97F
EVELETH        SUNNY     72  63  73 S12G18    29.99F
DULUTH HARBOR  FOG       61  57  88 NE13      30.00F VSB 3/4
TWO HARBORS    CLOUDY    68  63  83 E7        29.99S
SILVER BAY     SUNNY     70  63  78 NE7       29.99F
GRAND MARAIS     N/A     63  55  75 E3        30.01S
G MARAIS ARPRT SUNNY     72  52  49 SE6       30.05S
$$
MNZ029>031-032-039>041-046>048-054>057-064-031800-
   West Central Minnesota

CITY           SKY/WX    TMP DP  RH WIND       PRES   REMARKS
FERGUS FALLS   SUNNY     81  70  69 SE18      29.83F
WHEATON        SUNNY     75  70  83 SE13      29.85S
MORRIS         MOSUNNY   79  72  78 SE15      29.84F
ALEXANDRIA     CLOUDY    76  71  85 SE15G21   29.90F
ELBOW LAKE     FAIR      79  72  77 SE16G23   29.85S
WADENA         CLOUDY    75  70  83 SE13      29.90S
GLENWOOD       PTSUNNY   77  72  83 SE15      29.90F
APPLETON       MOSUNNY   79  70  73 E14       29.84F
BENSON         MOSUNNY   81  70  69 S10       29.86F
ORTONVILLE     MOSUNNY   79  72  78 SE8       29.84S
MADISON        SUNNY     81  72  74 SE9       29.84F
WILLMAR        FAIR      81  73  78 SE13      29.89F
$$
MNZ033>034-036-042>043-049>051-058-059-031800-
   Central Minnesota

CITY           SKY/WX    TMP DP  RH WIND       PRES   REMARKS
ST CLOUD       MOSUNNY   79  71  76 SE12      29.91F
SAUK CENTRE    CLOUDY    75  71  86 SE12      29.91S
PAYNESVILLE    CLOUDY    74  71  89 E10       29.91S
AITKIN         SUNNY     79  66  65 SE9       29.93F
PINE RIVER     SUNNY     75  66  73 SE15      29.96S
BRAINERD       SUNNY     74  66  76 SE12      29.93F
STAPLES        CLOUDY    79  68  69 SE12G17   29.90F
LONG PRAIRIE   CLOUDY    75  70  83 E10G18    29.91F
LITTLE FALLS   MOSUNNY   79  68  69 SE10G17   29.92S
LITCHFIELD     PTSUNNY   77  73  88 E12       29.90F
BUFFALO        MOSUNNY   80  71  73 E6        29.92F
MAPLE LAKE     CLOUDY    79  74  84 E6        29.92F
$$
MNZ037-044-045-052-053-031800-
   East Central Minnesota

CITY           SKY/WX    TMP DP  RH WIND       PRES   REMARKS
PRINCETON      MOSUNNY   79  72  78 E5        29.93S
MORA           SUNNY     73  64  73 E8        29.96F
CAMBRIDGE      MOSUNNY   79  66  65 E7        29.92F
RUSH CITY      MOSUNNY   77  69  76 E3        29.94F
MOOSE LAKE     CLOUDY    68  63  83 NE7       29.96F
HINCKLEY       FAIR      75  68  78 E8        29.96S
CLOQUET        CLOUDY    63  61  94 E8        29.99F FOG
MCGREGOR       SUNNY     73  64  73 E9        29.96F
$$
MNZ071>073-080-081-089-090-097-098-031800-
   Southwest Minnesota

CITY           SKY/WX    TMP DP  RH WIND       PRES   REMARKS
MONTEVIDEO     SUNNY     82  73  74 S9        29.87F
GRANITE FALLS  SUNNY     81  73  76 E8        29.87F
CANBY          SUNNY     80  72  76 SE7       29.86S
MARSHALL       SUNNY     82  70  65 SE8       29.87S
REDWOOD FALLS  SUNNY     83  72  69 E8        29.86F
OLIVIA         SUNNY     77  70  78 SE8       29.87F
PIPESTONE      SUNNY     82  72  69 S9        29.87S
WINDOM         SUNNY     84  72  65 SE8       29.88F
WORTHINGTON    SUNNY     81  72  74 SE8       29.88F
JACKSON        SUNNY     82  73  74 SE5       29.90S
TRACY          SUNNY     83  74  73 SE8       29.87S HX  90
SLAYTON        SUNNY     82  73  75 CALM      29.89S
$$
MNZ065>067-074>077-082>085-091>093-031800-
   South Central Minnesota

CITY           SKY/WX    TMP DP  RH WIND       PRES   REMARKS
MANKATO        SUNNY     81  73  78 SE9       29.89F
NEW ULM        SUNNY     82  73  74 SE6       29.88S
ST JAMES       SUNNY     82  73  74 SE7       29.88F
FAIRMONT       SUNNY     82  70  65 SE8       29.89S
GLENCOE        SUNNY     81  75  81 E7        29.90S
FARIBAULT      SUNNY     82  73  74 E7        29.91F
OWATONNA       SUNNY     84  72  65 SE7       29.91F
WASECA         SUNNY     82  72  69 E7        29.92S
ALBERT LEA     SUNNY     82  73  74 SE5       29.91F
$$
MNZ078>079-086>088-094>096-031800-
   Southeast Minnesota

CITY           SKY/WX    TMP DP  RH WIND       PRES   REMARKS
ROCHESTER      MOSUNNY   82  72  71 VRB7      29.94S
RED WING       CLOUDY    77  72  83 SE7       29.92F
STANTON        SUNNY     82  72  72 E7        29.90F
DODGE CENTER   MOSUNNY   81  72  74 E6        29.93F
WINONA         SUNNY     81  70  69 SE6       29.93S
AUSTIN         SUNNY     82  73  74 E3        29.92F
PRESTON        MOSUNNY   81  70  69 E5        29.94S
$$
ABBREVIATIONS USED IN REMARKS
   TC - TEMPERATURES IN CELSIUS
  WCI - WIND CHILL INDEX
   HX - HEAT INDEX
  VSB - VISIBILITY
$$



USA.gov is the U.S. government's official web portal to all federal, state and local government web resources and services.